Location: Newark
(39.0622°N, 106.5590°E)
Time: 12:57:42
(UTC+00:00)

UWE-3 - Pass Details

Date: 29 February 2020
Orbit: 585 x 683 km, 97.6° (Epoch: 03 April)

Event Time Altitude Azimuth Distance (km) Brightness Sun altitude
Rises 21:07:31 0° 33° (NNE) 3,052 ? -27.6°
Reaches altitude 10° 21:10:48 10° 57° (ENE) 2,129 ? -27.0°
Maximum altitude 21:13:20 15° 91° (E) 1,833 ? -26.5°
Drops below altitude 10° 21:15:51 10° 124° (SE) 2,108 ? -26.0°
Sets 21:19:04 0° 148° (SSE) 3,003 ? -25.4°
